TimeEDT,TemperatureF,Dew PointF,Humidity,Sea Level PressureIn,VisibilityMPH,Wind Direction,Wind SpeedMPH,Gust SpeedMPH,PrecipitationIn,Events,Conditions,WindDirDegrees,DateUTC
12:56 AM,52.0,48.9,89,30.05,10.0,Calm,Calm,-,N/A,,Clear,0,2011-10-03 04:56:00
1:56 AM,50.0,48.9,96,30.06,10.0,NNW,3.5,-,N/A,,Clear,330,2011-10-03 05:56:00
2:56 AM,52.0,48.9,89,30.06,10.0,Calm,Calm,-,N/A,,Clear,0,2011-10-03 06:56:00
3:56 AM,48.9,48.0,97,30.07,10.0,NNW,5.8,-,N/A,,Clear,340,2011-10-03 07:56:00
4:56 AM,50.0,48.0,93,30.06,10.0,Calm,Calm,-,N/A,,Clear,0,2011-10-03 08:56:00
5:56 AM,48.0,46.9,96,30.09,10.0,NNW,9.2,-,N/A,,Clear,340,2011-10-03 09:56:00
6:56 AM,48.0,46.0,93,30.10,10.0,Calm,Calm,-,N/A,,Clear,0,2011-10-03 10:56:00
7:56 AM,50.0,48.0,93,30.12,10.0,North,4.6,-,N/A,,Clear,350,2011-10-03 11:56:00
8:56 AM,57.9,44.1,60,30.13,10.0,Calm,Calm,-,N/A,,Clear,0,2011-10-03 12:56:00
9:56 AM,63.0,42.1,46,30.15,10.0,North,9.2,-,N/A,,Clear,360,2011-10-03 13:56:00
10:56 AM,66.9,39.0,36,30.15,10.0,Variable,3.5,-,N/A,,Partly Cloudy,0,2011-10-03 14:56:00
11:56 AM,69.1,30.9,24,30.14,10.0,Variable,3.5,-,N/A,,Clear,0,2011-10-03 15:56:00
12:56 PM,71.1,34.0,26,30.14,10.0,NW,10.4,-,N/A,,Partly Cloudy,310,2011-10-03 16:56:00
1:56 PM,72.0,34.0,25,30.12,10.0,WNW,4.6,-,N/A,,Partly Cloudy,300,2011-10-03 17:56:00
2:56 PM,73.0,34.0,24,30.10,10.0,West,5.8,-,N/A,,Partly Cloudy,270,2011-10-03 18:56:00
3:56 PM,73.0,36.0,26,30.09,10.0,Variable,4.6,-,N/A,,Clear,0,2011-10-03 19:56:00
4:56 PM,73.9,37.9,27,30.08,10.0,NW,10.4,-,N/A,,Clear,310,2011-10-03 20:56:00
5:56 PM,72.0,37.0,28,30.08,10.0,NW,6.9,-,N/A,,Clear,310,2011-10-03 21:56:00
6:56 PM,64.9,43.0,45,30.10,10.0,NNW,3.5,-,N/A,,Clear,340,2011-10-03 22:56:00
7:56 PM,59.0,48.0,67,30.12,10.0,Calm,Calm,-,N/A,,Clear,0,2011-10-03 23:56:00
8:56 PM,60.1,46.9,62,30.14,10.0,Calm,Calm,-,N/A,,Clear,0,2011-10-04 00:56:00
9:56 PM,57.9,46.9,67,30.15,10.0,Calm,Calm,-,N/A,,Clear,0,2011-10-04 01:56:00
10:56 PM,55.9,48.0,75,30.15,10.0,Calm,Calm,-,N/A,,Clear,0,2011-10-04 02:56:00
11:56 PM,55.0,48.0,77,30.16,10.0,Calm,Calm,-,N/A,,Clear,0,2011-10-04 03:56:00